Regional Weather Roundup
Issued by NWS

Home | Current Version | Previous Version | Graphics & Text | Print | Product List | Glossary On
Versions: 1 2 3 4 5 6 7 8 9 10 11 12 13 14 15 16 17 18 19 20 21 22 23 24 25 26 27 28 29 30 31 32 33 34 35 36 37 38 39 40 41 42 43 44 45 46 47 48 49 50
000
ASUS43 KOAX 011802
RWRNE

WEATHER ROUNDUP FOR NEBRASKA
NATIONAL WEATHER SERVICE OMAHA NE
1200 PM CST SUN FEB 01 2015

NOTES: SATELLITE DATA IS BEING USED TO AUGMENT CLOUD COVER ABOVE
       12000 FEET.
       "FAIR" INDICATES FEW OR NO CLOUDS BELOW 12,000 FEET WITH NO
       SIGNIFICANT WEATHER AND/OR OBSTRUCTIONS TO VISIBILITY.

  * THESE STATIONS DO NOT REPORT WEATHER SUCH AS RAIN...SNOW OR FOG.

NEZ001>004-019>022-054>056-011900-
NEBRASKA PANHANDLE

CITY           SKY/WX    TMP DP  RH WIND       PRES   REMARKS
SCOTTSBLUFF    CLOUDY    19   9  65 N21       30.28R WCI   3
6HR MIN TEMP:  16; 6HR MAX TEMP:  20; 6HR PCP: TRACE;

ALLIANCE       CLOUDY     8   1  73 N16       30.28R WCI -10
6HR MIN TEMP:   6; 6HR MAX TEMP:   8; 6HR PCP: TRACE;

CHADRON        CLOUDY     6   0  76 NE7       30.37S WCI  -6
6HR MIN TEMP:   5; 6HR MAX TEMP:   8; 6HR PCP: TRACE;

SIDNEY         CLOUDY    14   7  73 N18       30.24R WCI  -3
6HR MIN TEMP:   9; 6HR MAX TEMP:  16; 6HR PCP: TRACE;

$$

NEZ057>060-069>072-079>082-011900-
SOUTHWEST NEBRASKA

CITY           SKY/WX    TMP DP  RH WIND       PRES   REMARKS
NORTH PLATTE   CLOUDY    10   1  67 N23G35    30.26S WCI -10
6HR MIN TEMP:   6; 6HR MAX TEMP:  11; 6HR PCP: TRACE;

IMPERIAL       PTSUNNY   13   4  67 N32G38    30.27R WCI  -9
6HR MIN TEMP:  11; 6HR MAX TEMP:  14;

MCCOOK         PTSUNNY   14   5  67 NW28G33   30.27R WCI  -6
6HR MIN TEMP:  12; 6HR MAX TEMP:  16; 6HR PCP: TRACE;

$$

NEZ005>010-023>029-035>040-094-011900-
NORTH CENTRAL NEBRASKA

CITY           SKY/WX    TMP DP  RH WIND       PRES   REMARKS
VALENTINE      LGT SNOW   2  -5  72 N17G23    30.34S WCI -18
6HR MIN TEMP:   0; 6HR MAX TEMP:   4; 6HR PCP: TRACE;

BROKEN BOW     LGT SNOW   7   1  76 N25G33    30.23S VSB 1   WCI -15
6HR MIN TEMP:   6; 6HR MAX TEMP:   9; 6HR PCP: TRACE;

ORD            LGT SNOW   5  -2  72 NW30G38   30.24R VSB 3/4 WCI -19
6HR MIN TEMP:   5; 6HR MAX TEMP:   8; 6HR PCP: TRACE;

$$

NEZ041-046>049-061>064-073>077-083>087-011900-
SOUTH CENTRAL NEBRASKA

CITY           SKY/WX    TMP DP  RH WIND       PRES   REMARKS
GRAND ISLAND   BLWGSNOW   8   3  80 NW28G39   30.20R VSB 1/2 WCI -14
6HR MIN TEMP:   7; 6HR MAX TEMP:  12; 6HR PCP:  0.03;

HASTINGS       SNOW       9   4  80 N29G39    30.17S VSB 1/2 WCI -13
6HR MIN TEMP:   8; 6HR MAX TEMP:  13; 6HR PCP: TRACE;

KEARNEY *      CLOUDY     9   3  78 N24G39    30.20R VSB 3/4 WCI -12
$$

NEZ011>018-030>034-042>045-011900-
NORTHEAST NEBRASKA

CITY           SKY/WX    TMP DP  RH WIND       PRES   REMARKS
NORFOLK        SNOW       5   0  79 N26G40    30.20R VSB 1/2 WCI -18
6HR MIN TEMP:   5; 6HR MAX TEMP:  17; 6HR PCP: TRACE;

TEKAMAH        HAZE      16  11  80 N33G45    30.12R VSB 1/4 WCI  -5
6HR MIN TEMP:  15; 6HR MAX TEMP:  26; 6HR PCP: TRACE;

$$

NEZ050>053-065>068-078-088>093-011900-
SOUTHEAST NEBRASKA

CITY           SKY/WX    TMP DP  RH WIND       PRES   REMARKS
LINCOLN        LGT SNOW  14   9  80 N29G36    30.11R VSB 3/4 WCI  -7
6HR MIN TEMP:  14; 6HR MAX TEMP:  26; 6HR PCP: TRACE;

OMAHA EPPLEY   SNOW      18  14  84 N29G38    30.04R VSB 1/2 WCI  -1
6HR MIN TEMP:  18; 6HR MAX TEMP:  29; 6HR PCP: TRACE;

FALLS CITY     LGT SNOW  23  18  81 NW22G31   29.94R VSB 1   WCI   8
6HR MIN TEMP:  23; 6HR MAX TEMP:  33; 6HR PCP:  0.05;

$$

NEZ044-045-051>053-067-011900-
OMAHA AREA

CITY           SKY/WX    TMP DP  RH WIND       PRES   REMARKS
OMAHA EPPLEY   SNOW      18  14  84 N29G38    30.04R VSB 1/2 WCI  -1
6HR MIN TEMP:  18; 6HR MAX TEMP:  29; 6HR PCP: TRACE;

$$



USA.gov is the U.S. government's official web portal to all federal, state and local government web resources and services.